Previsão horária em Porto

Hoje, 17 Janeiro, Domingo

Tempo Temperatura Precipitação Vento Pressão Humidade
00:00 +7°C° 0 mm 1 m/s 766 mmHg 72%
01:00 +5°C° 0 mm 2 m/s 766 mmHg 71%
02:00 +5°C° 0 mm 2 m/s 766 mmHg 70%
03:00 +5°C° 0 mm 2 m/s 766 mmHg 69%
04:00 +5°C° 0 mm 2 m/s 766 mmHg 67%
05:00 +6°C° 0 mm 1 m/s 766 mmHg 67%
06:00 +6°C° 0 mm 1 m/s 766 mmHg 64%
07:00 +5°C° 0 mm 2 m/s 766 mmHg 62%
08:00 +6°C° 0 mm 2 m/s 766 mmHg 59%
09:00 +9°C° 0 mm 1 m/s 766 mmHg 54%
10:00 +12°C° 0 mm 1 m/s 766 mmHg 48%
11:00 +13°C° 0 mm 0 m/s 766 mmHg 44%
12:00 +15°C° 0 mm 1 m/s 766 mmHg 45%
13:00 +15°C° 0 mm 1 m/s 765 mmHg 46%
14:00 +16°C° 0 mm 1 m/s 764 mmHg 47%
15:00 +14°C° 0 mm 1 m/s 765 mmHg 55%
16:00 +12°C° 0 mm 1 m/s 765 mmHg 63%
17:00 +10°C° 0 mm 1 m/s 765 mmHg 71%
18:00 +10°C° 0 mm 1 m/s 765 mmHg 73%
19:00 +10°C° 0 mm 1 m/s 765 mmHg 74%
20:00 +10°C° 0 mm 1 m/s 765 mmHg 76%
21:00 +9°C° 0 mm 1 m/s 765 mmHg 77%
22:00 +9°C° 0 mm 1 m/s 765 mmHg 78%
23:00 +9°C° 0 mm 1 m/s 765 mmHg 79%

Amanhã, 18 Janeiro, Segunda-feira

Tempo Temperatura Precipitação Vento Pressão Humidade
00:00 +9°C° 0 mm 1 m/s 764 mmHg 80%
01:00 +9°C° 0 mm 1 m/s 764 mmHg 81%
02:00 +8°C° 0 mm 1 m/s 764 mmHg 82%
03:00 +8°C° 0 mm 1 m/s 764 mmHg 83%
04:00 +8°C° 0 mm 1 m/s 764 mmHg 83%
05:00 +7°C° 0 mm 2 m/s 763 mmHg 84%
06:00 +8°C° 0 mm 1 m/s 764 mmHg 82%
07:00 +8°C° 0 mm 1 m/s 764 mmHg 80%
08:00 +9°C° 0 mm 1 m/s 764 mmHg 78%
09:00 +11°C° 0 mm 1 m/s 764 mmHg 71%
10:00 +13°C° 0 mm 1 m/s 764 mmHg 63%
11:00 +15°C° 0 mm 1 m/s 764 mmHg 55%
12:00 +15°C° 0 mm 1 m/s 763 mmHg 54%
13:00 +16°C° 0 mm 1 m/s 762 mmHg 53%
14:00 +16°C° 0 mm 1 m/s 761 mmHg 53%
15:00 +14°C° 0 mm 1 m/s 761 mmHg 60%
16:00 +12°C° 0 mm 1 m/s 762 mmHg 68%
17:00 +10°C° 0 mm 0 m/s 762 mmHg 75%
18:00 +10°C° 0 mm 1 m/s 762 mmHg 76%
19:00 +10°C° 0 mm 1 m/s 762 mmHg 77%
20:00 +8°C° 0 mm 2 m/s 762 mmHg 78%
21:00 +8°C° 0 mm 2 m/s 762 mmHg 79%
22:00 +8°C° 0 mm 2 m/s 762 mmHg 79%
23:00 +7°C° 0 mm 2 m/s 762 mmHg 79%

Depois de amanhã, 19 Janeiro, Terça-feira

Tempo Temperatura Precipitação Vento Pressão Humidade
00:00 +7°C° 0 mm 3 m/s 762 mmHg 79%
01:00 +7°C° 0 mm 3 m/s 761 mmHg 79%
02:00 +5°C° 0 mm 3 m/s 761 mmHg 80%
03:00 +5°C° 0 mm 3 m/s 760 mmHg 79%
04:00 +5°C° 0 mm 3 m/s 760 mmHg 79%
05:00 +5°C° 0 mm 3 m/s 760 mmHg 79%
06:00 +5°C° 0 mm 4 m/s 760 mmHg 77%
07:00 +6°C° 0 mm 4 m/s 760 mmHg 75%
08:00 +6°C° 0 mm 4 m/s 760 mmHg 72%
09:00 +8°C° 0 mm 5 m/s 759 mmHg 69%
10:00 +9°C° 0 mm 6 m/s 759 mmHg 65%
11:00 +11°C° 0 mm 6 m/s 759 mmHg 61%
12:00 +11°C° 0 mm 7 m/s 758 mmHg 62%
13:00 +11°C° 0 mm 7 m/s 757 mmHg 62%
14:00 +12°C° 0 mm 7 m/s 756 mmHg 63%
15:00 +11°C° 0 mm 7 m/s 755 mmHg 67%
16:00 +10°C° 0 mm 8 m/s 755 mmHg 71%
17:00 +9°C° 0 mm 8 m/s 754 mmHg 75%
18:00 +9°C° 0 mm 8 m/s 754 mmHg 75%
19:00 +8°C° 0 mm 9 m/s 753 mmHg 74%
20:00 +8°C° 0 mm 9 m/s 752 mmHg 74%
21:00 +8°C° 0.6 mm 9 m/s 752 mmHg 77%
22:00 +8°C° 0.6 mm 10 m/s 751 mmHg 80%
23:00 +8°C° 0.6 mm 10 m/s 750 mmHg 83%

20 Janeiro, Quarta-feira

Tempo Temperatura Precipitação Vento Pressão Humidade
00:00 +8°C° 2.7 mm 10 m/s 749 mmHg 86%
01:00 +8°C° 2.7 mm 10 m/s 748 mmHg 88%
02:00 +8°C° 2.7 mm 10 m/s 747 mmHg 90%
03:00 +10°C° 3.6 mm 9 m/s 746 mmHg 92%
04:00 +10°C° 3.6 mm 8 m/s 746 mmHg 93%
05:00 +10°C° 3.6 mm 7 m/s 745 mmHg 94%
06:00 +10°C° 1.3 mm 7 m/s 745 mmHg 93%
07:00 +10°C° 1.3 mm 7 m/s 745 mmHg 92%
08:00 +11°C° 1.3 mm 7 m/s 745 mmHg 91%
09:00 +11°C° 1 mm 7 m/s 745 mmHg 91%
10:00 +11°C° 1 mm 8 m/s 745 mmHg 90%
11:00 +11°C° 1 mm 9 m/s 745 mmHg 90%
12:00 +11°C° 1.2 mm 9 m/s 744 mmHg 90%
13:00 +11°C° 1.2 mm 9 m/s 744 mmHg 89%
14:00 +11°C° 1.2 mm 9 m/s 744 mmHg 89%
15:00 +11°C° 0.9 mm 8 m/s 744 mmHg 89%
16:00 +11°C° 0.9 mm 8 m/s 745 mmHg 89%
17:00 +11°C° 0.9 mm 7 m/s 745 mmHg 89%
18:00 +11°C° 0.7 mm 7 m/s 746 mmHg 90%
19:00 +11°C° 0.7 mm 7 m/s 747 mmHg 91%
20:00 +11°C° 0.7 mm 7 m/s 747 mmHg 91%
21:00 +11°C° 0.5 mm 7 m/s 748 mmHg 92%
22:00 +11°C° 0.5 mm 7 m/s 749 mmHg 93%
23:00 +11°C° 0.5 mm 7 m/s 749 mmHg 93%

21 Janeiro, Quinta-feira

Tempo Temperatura Precipitação Vento Pressão Humidade
00:00 +11°C° 0.3 mm 6 m/s 749 mmHg 94%
01:00 +10°C° 0.3 mm 5 m/s 750 mmHg 94%
02:00 +10°C° 0.3 mm 5 m/s 750 mmHg 95%
03:00 +10°C° 0.2 mm 5 m/s 750 mmHg 94%
04:00 +10°C° 0.2 mm 6 m/s 750 mmHg 94%
05:00 +10°C° 0.2 mm 6 m/s 750 mmHg 94%
06:00 +11°C° 0.4 mm 7 m/s 750 mmHg 93%
07:00 +11°C° 0.4 mm 8 m/s 750 mmHg 92%
08:00 +11°C° 0.4 mm 10 m/s 750 mmHg 92%
09:00 +11°C° 1.2 mm 10 m/s 749 mmHg 92%
10:00 +11°C° 1.2 mm 11 m/s 749 mmHg 93%
11:00 +11°C° 1.2 mm 11 m/s 749 mmHg 94%
12:00 +12°C° 1.4 mm 11 m/s 749 mmHg 92%
13:00 +12°C° 1.4 mm 10 m/s 748 mmHg 90%
14:00 +12°C° 1.4 mm 9 m/s 748 mmHg 89%
15:00 +12°C° 0.4 mm 8 m/s 748 mmHg 88%
16:00 +12°C° 0.4 mm 8 m/s 749 mmHg 88%
17:00 +11°C° 0.4 mm 7 m/s 749 mmHg 87%
18:00 +11°C° 0.4 mm 7 m/s 750 mmHg 86%
19:00 +11°C° 0.4 mm 7 m/s 750 mmHg 85%
20:00 +11°C° 0.4 mm 6 m/s 751 mmHg 84%
21:00 +10°C° 0.4 mm 6 m/s 751 mmHg 85%
22:00 +10°C° 0.4 mm 5 m/s 751 mmHg 86%
23:00 +10°C° 0.4 mm 4 m/s 751 mmHg 88%

22 Janeiro, Sexta-feira

Tempo Temperatura Precipitação Vento Pressão Humidade
00:00 +10°C° 0.5 mm 4 m/s 751 mmHg 88%
01:00 +9°C° 0.5 mm 5 m/s 751 mmHg 89%
02:00 +9°C° 0.5 mm 5 m/s 751 mmHg 90%
03:00 +9°C° 1 mm 6 m/s 751 mmHg 88%
04:00 +9°C° 1 mm 8 m/s 751 mmHg 86%
05:00 +10°C° 1 mm 9 m/s 751 mmHg 84%
06:00 +8°C° 0.9 mm 9 m/s 752 mmHg 82%
07:00 +9°C° 0.9 mm 8 m/s 752 mmHg 81%
08:00 +9°C° 0.9 mm 8 m/s 753 mmHg 79%
09:00 +10°C° 0.5 mm 8 m/s 754 mmHg 76%
10:00 +10°C° 0.5 mm 7 m/s 755 mmHg 74%
11:00 +10°C° 0.5 mm 6 m/s 756 mmHg 71%
12:00 +10°C° 0.1 mm 6 m/s 756 mmHg 70%
13:00 +12°C° 0.1 mm 5 m/s 756 mmHg 68%
14:00 +12°C° 0.1 mm 5 m/s 756 mmHg 67%
15:00 +11°C° 0.1 mm 4 m/s 757 mmHg 72%
16:00 +10°C° 0.1 mm 4 m/s 757 mmHg 77%
17:00 +9°C° 0.1 mm 3 m/s 758 mmHg 83%
18:00 +9°C° 0.1 mm 3 m/s 759 mmHg 84%
19:00 +9°C° 0.1 mm 3 m/s 759 mmHg 85%
20:00 +9°C° 0.1 mm 3 m/s 760 mmHg 86%
21:00 +9°C° 0.1 mm 3 m/s 760 mmHg 86%
22:00 +8°C° 0.1 mm 3 m/s 760 mmHg 87%
23:00 +8°C° 0.1 mm 3 m/s 761 mmHg 87%
Mostrar mais

Necessitamos do seu Consentimento

A Meteoprog e os seus Fornecedores de Serviços podem armazenar e aceder a dados pessoais como cookies, identificadores do dispositivo ou outras tecnologias semelhantes existentes no seu dispositivo e processar estes dados para personalizar conteúdos e anúncios, assim como funcionalidades nas redes sociais e análise de tráfego.

  • Armazenar e/ou aceder a informações no seu dispositivo

    Os cookies, identificadores do dispositivo ou outras informações podem ser armazenados ou acedidos no seu dispositivo, para os fins acima indicados.

  • Anúncios e conteúdos personalizados, medição de anúncios e conteúdos, dados sobre o público-alvo e desenvolvimento de produtos

    Os anúncios e os conteúdos podem ser personalizados com base num perfil. Podem ser adicionados dados adicionais para uma maior personalização dos anúncios e dos conteúdos. A eficácia dos anúncios e dos conteúdos pode ser medida. Podem ser obtidas informações sobre o público que visualizou os anúncios e os conteúdos. Estes dados podem ser usados para desenvolver ou melhorar sistemas, softwares ou a experiência do utilizador.

Ao clicar em "Eu concordo”, permitirá o uso de cookies, identificadores do dispositivo e web beacons mencionados ou outras tecnologias semelhantes. As configurações do navegador do seu dispositivo podem ser alteradas.

Para certos fins, podem ser invocados interesses legítimos ao invés de consentimento. Pode ler mais informação sobre este assunto na nossa Política de Privacidade e Cookies.